Weather Roundup
Issued by NWS Chicago, IL

Home | Current Version | Previous Version | Graphics & Text | Print | Product List | Glossary On
Versions: 1 2 3 4 5 6 7 8 9 10 11 12 13 14 15 16 17 18 19 20 21 22 23 24 25 26 27 28 29 30 31 32 33 34 35 36 37 38 39 40 41 42 43 44 45 46 47 48 49 50
000
NZUS59 KLOT 061803
HRRLOT

CHICAGO AREA WEATHER ROUNDUP
NATIONAL WEATHER SERVICE CHICAGO/ROMEOVILLE IL
100 PM CDT WED MAY 06 2015

NOTE: "FAIR" INDICATES FEW OR NO CLOUDS BELOW 12,000 FEET WITH NO
SIGNIFICANT WEATHER AND/OR OBSTRUCTIONS TO VISIBILITY.

* THESE STATIONS ARE NOT UNDER NWS QUALITY CONTROL. THEY ALSO MAY NOT
  REPORT WEATHER SUCH AS PRECIPITATION OR FOG.

ILZ005-006-012>014-019>023-061900-
NORTHEAST ILLINOIS

CITY           SKY/WX    TMP DP  RH WIND       PRES   REMARKS
OHARE          MOSUNNY   73  60  63 SE5       30.14F
6HR MIN TEMP:  49; 6HR MAX TEMP:  73;

MIDWAY         MOSUNNY   78  62  57 S3        30.14F HAZE    HX  80
6HR MIN TEMP:  53; 6HR MAX TEMP:  78;

AURORA         PTSUNNY   74  62  66 S8        30.14F HAZE
6HR MIN TEMP:  53; 6HR MAX TEMP:  74;

WAUKEGAN       PTSUNNY   56  51  84 E6        30.17F
6HR MIN TEMP:  45; 6HR MAX TEMP:  56;

DUPAGE AIRPORT MOSUNNY   73  61  65 S7        30.14F
6HR MIN TEMP:  51; 6HR MAX TEMP:  74;

WHEELING       MOSUNNY   67  55  65 NE8       30.17F
6HR MIN TEMP:  47; 6HR MAX TEMP:  68;

NORTHERLY IS     N/A     52  51  97 N7          N/A
$$

WIZ051-052-058>065-066-070>072-061900-
SOUTHEAST WISCONSIN

CITY           SKY/WX    TMP DP  RH WIND       PRES   REMARKS
MILWAUKEE      CLOUDY    54  50  86 E7        30.19S FOG
6HR MIN TEMP:  45; 6HR MAX TEMP:  54;

KENOSHA*       CLOUDY    58  53  84 NE8       30.18F
RACINE*        CLOUDY    52  48  86 VRB5      30.21S FOG
WAUKESHA       PTSUNNY   57  54  88 NE6       30.18F FOG
$$

INZ001>003-010>013-019-020-061900-
NORTHWEST INDIANA

CITY           SKY/WX    TMP DP  RH WIND       PRES   REMARKS
GARY*          MOSUNNY   79 N/A N/A SE6       30.15F
MICHIGAN CITY* NOT AVBL
RENSSELAER*    NOT AVBL
$$

LMZ740>746-061900-
SOUTHERN LAKE MICHIGAN

STATION/POSITION TIME  SKY/WX   TEMP WIND        PRES    VSBY
                                AIR  DIR/SP/G
                 (UTC)          (F)  (DEG/KT/KT) (MB)    (MI)
HARRISON CRIB    1700            47   30/  7/  7   N/A
BURNHAM HARBOR   1800            51   10/  8       N/A
CALUMET HARBOR   1700            54   40/  4/  6   N/A
BURNS HARBOR     1700            61   70/  4/  4 1022.0F
MICHIGAN CITY    1700            66  340/  4/  5   N/A
$$

ABBREVIATIONS USED IN REMARKS
   TC - TEMPERATURE IN CELSIUS
  WCI - WIND CHILL INDEX
   HX - HEAT INDEX
  VSB - VISIBILITY
$$



USA.gov is the U.S. government's official web portal to all federal, state and local government web resources and services.